TimeEEST,TemperatureF,Dew PointF,Humidity,Sea Level PressureIn,VisibilityMPH,Wind Direction,Wind SpeedMPH,Gust SpeedMPH,PrecipitationIn,Events,Conditions,WindDirDegrees,DateUTC
12:50 AM,73.4,55.4,53,29.71,6.2,NNW,9.2,-,N/A,,Partly Cloudy,340,2013-09-16 21:50:00
2:50 AM,71.6,57.2,60,29.68,6.2,North,5.8,-,N/A,,Partly Cloudy,360,2013-09-16 23:50:00
3:50 AM,71.6,55.4,57,29.68,6.2,Calm,Calm,-,N/A,,Partly Cloudy,0,2013-09-17 00:50:00
4:50 AM,69.8,55.4,60,29.68,-9999.0,NNW,4.6,-,N/A,,Clear,340,2013-09-17 01:50:00
5:50 AM,69.8,55.4,60,29.68,-9999.0,Calm,Calm,-,N/A,,Clear,0,2013-09-17 02:50:00
6:20 AM,68.0,55.4,64,29.68,-9999.0,Calm,Calm,-,N/A,,Clear,0,2013-09-17 03:20:00
6:50 AM,68.0,55.4,64,29.68,-9999.0,NNW,4.6,-,N/A,,Clear,340,2013-09-17 03:50:00
7:20 AM,69.8,57.2,64,29.68,-9999.0,NNW,4.6,-,N/A,,Clear,330,2013-09-17 04:20:00
7:50 AM,69.8,57.2,64,29.68,-9999.0,Calm,Calm,-,N/A,,Clear,0,2013-09-17 04:50:00
8:20 AM,73.4,57.2,57,29.68,-9999.0,Variable,3.5,-,N/A,,Clear,0,2013-09-17 05:20:00
8:50 AM,73.4,55.4,53,29.68,-9999.0,Calm,Calm,-,N/A,,Clear,0,2013-09-17 05:50:00
9:20 AM,77.0,55.4,47,29.68,-9999.0,Calm,Calm,-,N/A,,Clear,0,2013-09-17 06:20:00
9:50 AM,77.0,57.2,50,29.71,-9999.0,Calm,Calm,-,N/A,,Clear,0,2013-09-17 06:50:00
10:20 AM,80.6,55.4,42,29.71,-9999.0,South,4.6,-,N/A,,Clear,180,2013-09-17 07:20:00
10:50 AM,80.6,55.4,42,29.71,6.2,West,5.8,-,N/A,,Partly Cloudy,260,2013-09-17 07:50:00
11:20 AM,82.4,53.6,37,29.71,6.2,West,5.8,-,N/A,,Scattered Clouds,260,2013-09-17 08:20:00
11:50 AM,82.4,53.6,37,29.71,6.2,SW,11.5,-,N/A,,Scattered Clouds,230,2013-09-17 08:50:00
12:20 PM,84.2,50.0,30,29.68,6.2,SW,5.8,-,N/A,,Scattered Clouds,230,2013-09-17 09:20:00
12:50 PM,86.0,48.2,27,29.68,6.2,SSW,8.1,-,N/A,,Scattered Clouds,200,2013-09-17 09:50:00
1:20 PM,86.0,46.4,25,29.68,6.2,West,10.4,-,N/A,,Scattered Clouds,280,2013-09-17 10:20:00
1:50 PM,86.0,46.4,25,29.68,6.2,WNW,12.7,-,N/A,,Scattered Clouds,300,2013-09-17 10:50:00
2:20 PM,84.2,51.8,33,29.65,6.2,WNW,11.5,-,N/A,,Scattered Clouds,290,2013-09-17 11:20:00
2:50 PM,86.0,50.0,29,29.65,6.2,SW,12.7,-,N/A,,Scattered Clouds,220,2013-09-17 11:50:00
3:20 PM,86.0,51.8,31,29.65,6.2,SSW,15.0,-,N/A,,Scattered Clouds,210,2013-09-17 12:20:00
3:50 PM,84.2,55.4,37,29.65,6.2,South,12.7,-,N/A,,Scattered Clouds,190,2013-09-17 12:50:00
4:20 PM,84.2,57.2,40,29.65,6.2,South,16.1,-,N/A,,Scattered Clouds,180,2013-09-17 13:20:00
4:50 PM,84.2,59.0,42,29.65,6.2,South,15.0,-,N/A,,Scattered Clouds,180,2013-09-17 13:50:00
5:20 PM,82.4,59.0,45,29.65,6.2,South,13.8,-,N/A,,Scattered Clouds,190,2013-09-17 14:20:00
5:50 PM,80.6,60.8,51,29.65,6.2,South,12.7,-,N/A,,Scattered Clouds,180,2013-09-17 14:50:00
6:20 PM,78.8,60.8,54,29.65,6.2,South,11.5,-,N/A,,Scattered Clouds,180,2013-09-17 15:20:00
6:50 PM,78.8,60.8,54,29.62,6.2,South,8.1,-,N/A,,Scattered Clouds,180,2013-09-17 15:50:00
7:20 PM,78.8,59.0,51,29.65,6.2,South,6.9,-,N/A,,Scattered Clouds,180,2013-09-17 16:20:00
7:50 PM,77.0,62.6,61,29.65,6.2,NE,4.6,-,N/A,,Scattered Clouds,50,2013-09-17 16:50:00
8:20 PM,77.0,60.8,57,29.65,6.2,SSE,3.5,-,N/A,,Scattered Clouds,150,2013-09-17 17:20:00
8:50 PM,77.0,62.6,61,29.65,6.2,SSE,3.5,-,N/A,,Scattered Clouds,160,2013-09-17 17:50:00
9:20 PM,78.8,57.2,47,29.65,6.2,SW,6.9,-,N/A,,Partly Cloudy,230,2013-09-17 18:20:00
9:50 PM,77.0,57.2,50,29.65,6.2,SW,5.8,-,N/A,,Partly Cloudy,230,2013-09-17 18:50:00
10:20 PM,77.0,53.6,44,29.65,6.2,WSW,4.6,-,N/A,,Partly Cloudy,240,2013-09-17 19:20:00
10:50 PM,75.2,53.6,47,29.68,-9999.0,Calm,Calm,-,N/A,,Clear,0,2013-09-17 19:50:00
11:20 PM,75.2,53.6,47,29.68,-9999.0,West,4.6,-,N/A,,Clear,270,2013-09-17 20:20:00
11:50 PM,77.0,51.8,41,29.68,-9999.0,SSW,3.5,-,N/A,,Clear,200,2013-09-17 20:50:00